User: anonymous   Login
Location: Unspecified
(0.0000°N, 0.0000°E)
Time: 09:08:21
(UTC+00:00)
Language:

GONETS M03 - Orbit

View from above orbital plane
View from above orbital plane
View from above satellite
View from above satellite

Ground track
Ground track

The orbit data is extracted from the following two-line orbital elements,

1 38734U 12041B   17118.88845511 +.00000024 +00000-0 +10000-3 0  9991
2 38734 082.4794 354.1245 0019231 126.0480 234.2384 12.42896791215634
Epoch (UTC): 28 April 2017 21:19:22
Eccentricity: 0.0019231
inclination: 82.4794°
perigee height: 1479 km
apogee height: 1509 km
right ascension of ascending node: 354.1245°
argument of perigee: 126.0480°
revolutions per day: 12.42896791
mean anomaly at epoch: 234.2384°
orbit number at epoch: 21563

The dashed part of the orbit path shows where the satellite is in the earth's shadow,  

DLR